Date,TemperatureHighF,TemperatureAvgF,TemperatureLowF,DewpointHighF,DewpointAvgF,DewpointLowF,HumidityHigh,HumidityAvg,HumidityLow,PressureMaxIn,PressureMinIn,WindSpeedMaxMPH,WindSpeedAvgMPH,GustSpeedMaxMPH,PrecipitationSumIn
2013-1-1,29.3,24.9,20.5,20.7,17.5,11.9,83,73,66,30.33,30.12,0,0,0,0.00
2013-1-2,39.0,25.8,16.2,24.5,16.6,9.1,76,68,55,30.27,30.15,3,0,3,4.00
2013-1-3,39.7,28.8,20.5,26.1,18.7,12.2,75,66,56,30.44,30.26,16,4,16,0.12
2013-1-6,38.5,38.5,38.5,25.5,25.4,25.1,58,58,58,30.40,30.40,4,2,4,0.00
2013-1-7,34.3,33.9,33.6,20.2,20.0,19.9,57,57,56,30.40,30.40,11,8,11,0.00
2013-1-8,55.4,45.9,34.5,35.3,28.1,19.9,62,53,45,30.40,29.96,12,6,12,0.00
2013-1-12,28.6,27.6,26.4,14.4,13.4,12.5,56,55,54,30.07,30.02,17,10,20,0.00
2013-1-13,27.7,24.7,22.6,11.8,9.5,8.3,56,54,51,30.10,30.10,12,1,12,0.00
2013-1-14,33.1,25.4,16.7,15.9,10.4,5.5,65,53,43,30.45,30.10,10,1,10,4.02
2013-1-15,27.3,26.2,25.5,11.0,10.6,10.3,52,51,50,30.33,30.31,0,0,0,0.00
2013-1-16,39.4,32.1,25.5,25.4,17.9,10.3,59,57,53,30.31,30.18,5,0,5,0.00
2013-1-17,36.7,33.9,29.8,25.3,23.4,20.1,69,65,60,30.41,30.23,10,3,10,0.00
2013-1-19,61.0,53.0,28.9,31.4,28.0,20.1,69,39,33,30.41,30.11,10,2,11,0.12
2013-1-20,47.5,32.6,27.0,25.4,12.7,7.3,45,43,41,30.37,30.26,18,8,18,0.00
2013-1-21,23.5,22.1,21.0,7.6,7.0,6.4,53,52,44,30.40,30.27,12,2,12,0.00
2013-1-22,37.8,28.4,17.4,18.7,12.7,5.5,59,52,46,30.27,30.15,7,1,7,0.00
2013-1-23,30.0,26.6,24.4,14.3,13.0,12.2,60,56,51,30.22,30.17,0,0,0,0.00
2013-1-27,64.2,59.2,53.8,53.8,50.7,47.3,88,74,65,29.82,29.72,28,8,28,0.00
2013-1-28,71.4,59.6,43.7,59.3,49.6,36.9,89,71,45,29.83,29.64,35,10,35,0.00
2013-1-29,147.7,38.2,36.9,99.9,-8.7,-99.9,99,45,65,29.72,29.55,22,9,22,0.00
2013-1-30,39.0,31.5,27.1,30.0,22.3,16.7,81,69,57,29.99,29.64,34,11,34,0.02
2013-1-31,31.3,26.7,19.9,21.2,14.8,6.6,68,61,50,30.43,29.96,30,7,30,0.00
2013-2-1,36.9,27.3,18.1,14.1,10.5,6.6,61,50,39,30.40,30.13,21,5,21,0.00
2013-2-2,58.6,44.4,30.0,36.9,25.9,13.3,69,49,39,30.26,30.13,18,5,18,0.00
2013-2-3,55.9,47.0,32.7,29.2,25.6,19.5,61,44,32,30.27,29.85,22,6,22,0.00
2013-2-4,57.7,48.7,38.3,32.9,29.1,24.0,59,47,38,29.97,29.80,24,5,24,0.00
2013-2-5,67.3,49.9,32.7,37.5,28.4,22.6,68,46,28,30.04,29.91,16,2,16,0.00
2013-2-6,60.6,51.2,41.5,51.8,40.0,26.9,86,67,45,30.04,29.83,26,8,26,0.00
2013-2-7,55.2,49.8,39.7,49.4,40.1,27.7,87,71,51,30.20,29.83,26,7,26,0.12
2013-2-8,45.5,37.1,28.6,33.1,28.0,22.2,83,70,60,30.32,30.12,14,3,14,0.04
2013-2-9,49.5,40.4,35.8,38.9,33.7,28.5,89,77,66,30.12,29.63,30,12,30,0.00
2013-2-10,53.4,45.3,36.3,43.5,32.2,22.1,90,62,44,30.05,29.51,32,11,32,0.02
2013-2-11,50.2,40.4,28.0,27.0,22.1,18.0,66,49,35,30.22,30.06,18,4,18,0.00
2013-2-12,42.6,36.8,31.6,27.6,22.2,17.8,69,55,46,30.16,29.99,8,1,8,0.00
2013-2-13,61.5,43.8,27.0,32.9,25.2,17.4,72,51,30,30.01,29.88,20,5,20,0.00
2013-2-14,50.4,41.9,34.0,31.9,25.2,16.8,63,52,44,30.27,29.92,26,6,26,0.00
2013-2-15,46.0,34.7,21.9,22.2,16.1,11.2,66,47,35,30.40,30.27,24,7,24,0.00
2013-2-16,147.7,48.2,29.1,99.9,34.1,-99.9,66,48,34,30.36,29.99,27,-13,27,0.00
2013-2-17,66.7,50.4,32.2,36.5,29.3,21.8,71,47,27,29.99,29.59,30,8,30,0.00
2013-2-18,54.0,48.3,35.4,37.9,28.4,18.2,64,46,38,30.14,29.48,47,13,47,0.00
2013-2-19,49.6,38.5,27.7,22.4,17.5,10.4,58,43,33,30.33,30.13,17,3,17,0.00
2013-2-20,32.7,29.6,25.7,25.6,17.1,6.7,78,62,37,30.24,29.99,22,7,22,0.00
2013-2-21,29.3,25.6,19.2,23.7,19.5,11.6,83,78,72,29.99,29.70,20,7,20,0.02
2013-2-22,41.9,25.4,14.2,21.0,13.4,5.9,73,61,45,30.11,29.90,14,4,14,0.14
2013-2-23,43.0,29.3,17.2,26.1,17.5,7.3,68,61,50,30.08,29.90,15,4,15,0.02
2013-2-24,46.9,37.6,28.0,99.9,26.5,18.5,71,64,51,29.91,29.77,14,5,14,0.02
2013-2-25,38.1,33.8,31.8,29.6,28.0,26.3,86,79,71,29.88,29.67,34,10,34,0.00
2013-2-26,40.8,32.8,27.1,30.5,25.8,22.1,86,76,63,29.92,29.71,13,1,13,0.26
2013-2-27,41.4,34.0,28.0,28.5,23.8,-99.9,79,68,56,30.17,29.91,29,8,29,0.06
2013-2-28,37.6,32.6,26.4,27.3,23.7,18.9,74,70,65,30.22,30.15,22,8,22,0.02
2013-3-1,35.2,31.2,25.0,24.3,21.3,15.0,73,67,59,30.33,30.20,22,6,22,0.00
2013-3-2,135.9,24.1,20.5,99.9,-7.9,-99.9,72,47,45,30.35,30.13,10,2,10,0.00
2013-3-3,55.0,51.3,48.2,36.2,34.2,32.7,55,52,49,29.68,29.62,12,6,12,0.00
2013-3-4,58.3,46.4,38.8,38.8,33.8,28.9,77,62,47,30.07,29.57,28,8,28,0.04
2013-3-5,49.3,38.5,30.0,32.2,22.3,17.4,78,53,43,30.37,30.07,34,11,34,0.04
2013-3-6,49.8,39.0,25.9,25.4,21.2,15.3,64,50,38,30.40,30.16,16,4,16,0.00
2013-3-7,64.9,50.5,34.9,32.9,27.4,21.0,60,43,29,30.16,29.98,28,10,30,0.00
2013-3-8,60.1,52.7,46.4,45.9,37.7,28.4,71,57,42,30.08,29.88,29,12,29,0.00
2013-3-9,54.3,53.3,52.7,46.6,45.5,44.2,78,75,69,29.89,29.78,28,12,28,0.00
2013-3-14,76.8,69.0,57.0,48.6,43.8,39.1,51,41,32,30.17,30.06,16,3,16,0.00
2013-3-15,80.8,66.5,48.6,52.5,45.9,37.1,68,49,36,30.08,29.70,23,5,23,0.00
2013-3-16,65.1,49.5,38.1,46.7,35.8,26.7,68,60,51,29.99,29.71,28,10,28,0.00
2013-3-17,42.1,38.2,34.0,32.8,29.2,24.8,80,70,64,29.99,29.68,25,6,25,0.02
2013-3-18,60.4,48.8,37.2,37.7,30.8,21.8,82,54,30,30.04,29.75,24,6,24,0.04
2013-3-19,58.8,44.5,31.8,28.2,22.8,16.1,61,43,30,30.27,30.02,15,4,15,0.00
2013-3-20,51.1,41.8,31.3,27.0,20.9,15.9,71,45,31,30.40,30.01,19,4,19,0.00
2013-3-21,48.2,39.1,33.6,26.0,19.4,14.7,72,46,34,30.01,29.72,24,10,24,0.00
2013-3-22,49.1,38.0,30.4,33.9,28.1,24.7,80,68,52,29.96,29.84,14,4,14,0.00
2013-3-23,51.1,33.3,31.3,45.4,28.2,26.5,88,82,72,29.95,29.83,27,7,27,0.14
2013-3-24,80.4,33.4,27.1,63.2,23.7,17.5,89,68,48,30.14,29.91,33,13,33,0.10
2013-3-25,147.7,56.3,30.6,99.9,25.1,-99.9,82,48,21,30.36,30.14,25,10,25,0.02
2013-3-26,51.8,39.0,23.5,29.2,22.0,14.3,70,51,38,30.41,30.18,14,3,14,0.00
2013-3-27,61.9,48.8,38.8,36.6,28.5,20.4,52,46,38,30.18,30.06,27,7,27,0.00
2013-3-28,68.0,54.4,37.9,47.0,37.8,27.7,68,54,44,30.16,30.05,13,2,13,0.00
2013-3-29,73.2,63.0,49.8,55.3,48.7,40.4,76,60,48,30.14,30.02,15,4,15,0.00
2013-3-30,74.8,62.4,53.8,59.3,52.9,47.6,86,72,54,30.04,29.86,18,4,18,0.49
2013-3-31,72.3,61.5,48.4,51.4,44.1,36.6,78,55,36,30.06,29.96,23,4,24,0.02
2013-4-1,55.2,42.8,37.8,37.4,31.1,25.8,75,64,50,30.29,29.96,22,6,22,0.16
2013-4-2,42.4,38.5,33.6,27.5,25.7,23.7,72,60,49,30.28,30.19,14,4,14,0.10
2013-4-3,41.7,39.7,38.8,31.9,28.5,24.3,74,64,53,30.31,30.21,14,3,14,0.02
2013-4-4,66.4,52.0,39.4,43.4,37.8,31.7,77,60,40,30.24,30.10,9,3,9,0.00
2013-4-5,64.6,54.8,42.1,45.5,40.4,33.7,74,59,47,30.15,29.82,33,9,33,0.00
2013-4-6,78.6,65.1,53.4,54.9,46.1,41.3,69,52,35,29.87,29.70,31,9,31,0.00
2013-4-7,71.4,60.9,54.3,57.1,49.5,40.4,84,67,47,29.88,29.67,21,5,21,0.00
2013-4-8,72.5,65.2,58.8,60.4,57.4,54.0,86,76,62,29.70,29.59,26,9,26,0.00
2013-4-9,73.8,59.2,32.9,61.9,50.7,27.2,80,74,56,29.99,29.57,36,13,36,0.53
2013-4-10,34.3,31.6,29.8,29.0,26.3,24.7,82,81,78,30.03,29.82,0,0,0,0.67
2013-4-11,53.4,42.7,28.8,36.0,30.1,22.4,80,62,46,29.96,29.73,14,3,14,0.04
2013-4-12,61.5,48.2,31.8,39.2,31.8,22.8,70,54,42,30.04,29.86,17,-13,17,0.02
2013-4-13,70.0,56.4,40.1,49.7,39.8,30.0,68,54,45,30.06,29.62,31,-3,31,0.00
2013-4-14,72.9,61.4,55.8,54.4,42.8,28.8,67,52,31,29.75,29.49,29,-56,29,0.00
2013-4-15,79.2,52.8,48.0,99.9,32.3,24.9,53,45,36,29.96,29.74,23,-174,23,0.00
2013-4-16,147.7,77.8,47.1,99.9,57.8,-99.9,97,59,45,30.07,29.92,29,-198,29,0.00
2013-4-17,154.9,2.1,143.4,99.9,-95.5,-99.9,99,2,97,29.99,29.69,23,-158,23,0.33
2013-4-18,-200.0,0.0,200.0,-99.9,-99.9,-99.9,0,0,100,30.06,29.71,31,-226,31,0.12
2013-4-19,51.1,1.7,49.8,99.9,-93.8,-99.9,49,2,48,30.10,29.98,22,-245,22,0.00
2013-4-20,62.2,52.9,40.8,99.9,34.1,27.5,63,49,39,30.11,29.98,20,-242,20,0.00
2013-4-21,69.1,61.4,52.3,46.6,41.0,36.2,57,48,40,30.15,30.03,33,-233,33,0.00
2013-4-22,69.1,57.4,41.7,99.9,45.3,34.7,76,62,51,30.08,29.80,26,-196,26,1.26
2013-4-26,56.1,51.5,50.9,47.6,46.6,46.3,85,84,82,30.14,30.10,8,1,8,0.26
2013-4-27,65.7,55.9,49.5,54.0,48.5,45.1,85,77,62,30.20,30.01,16,-6,16,0.02
2013-4-28,79.3,64.5,47.7,61.1,51.8,43.4,87,66,41,30.06,29.77,22,-18,22,0.02
2013-4-29,86.5,72.9,57.9,63.7,56.2,49.5,83,58,40,29.80,29.62,33,2,33,0.00
2013-4-30,85.8,73.8,62.2,61.9,55.6,49.8,73,54,39,29.78,29.66,36,13,36,0.00
2013-5-1,74.1,60.5,40.5,61.6,48.3,31.6,74,64,51,30.28,29.77,33,2,33,0.08
2013-5-2,49.5,41.4,34.9,33.8,30.9,27.4,82,68,43,30.51,30.22,32,12,32,1.14
2013-5-3,60.6,49.4,35.2,36.3,30.8,26.1,70,51,35,30.37,30.01,27,2,27,0.02
2013-5-4,48.7,44.3,40.8,37.4,32.3,26.2,74,63,49,30.11,29.93,31,6,31,0.00
2013-5-5,63.1,51.4,41.9,49.5,42.5,35.6,84,72,59,30.17,30.08,16,-10,16,0.00
2013-5-6,68.9,55.7,43.5,53.0,45.5,37.1,83,70,54,30.20,30.03,12,-3,12,0.00
2013-5-7,70.2,61.3,50.9,55.4,49.1,43.4,80,65,51,30.09,29.92,15,-4,15,0.00
2013-5-8,76.8,64.5,56.1,99.9,54.5,46.9,84,69,55,30.04,29.78,27,-2,27,0.77
2013-5-9,77.7,66.9,55.9,99.9,54.8,49.8,83,64,52,30.02,29.80,29,-12,29,0.18
2013-5-10,73.2,62.5,54.3,55.0,50.3,47.0,83,66,48,30.13,30.00,19,-17,19,0.00
2013-5-11,74.5,62.4,53.2,51.6,43.8,36.4,80,53,33,30.31,30.10,30,-17,30,0.00
2013-5-12,149.5,71.0,57.9,99.9,51.7,-99.9,75,49,39,30.33,30.07,22,-11,22,0.00
2013-5-13,58.8,56.4,54.1,42.8,41.7,41.0,61,58,54,30.11,30.03,11,3,11,0.00
2013-5-17,77.4,74.8,72.9,63.0,62.3,61.7,70,65,60,29.88,29.86,11,-22,11,0.00
2013-5-18,83.3,76.5,70.3,72.9,67.5,57.7,87,74,58,29.88,29.65,21,-44,21,0.04
2013-5-19,81.3,70.3,64.2,99.9,61.2,57.2,86,73,58,29.80,29.55,25,-136,25,2.67
2013-5-20,82.4,71.8,58.8,99.9,57.8,52.0,85,62,47,29.82,29.65,10,-159,10,0.06
2013-5-21,77.0,68.9,57.0,56.1,51.5,43.7,73,55,44,29.88,29.74,13,-99,13,0.00
2013-5-22,79.7,68.9,55.4,57.9,52.2,44.7,71,56,45,29.96,29.82,11,-113,11,0.00
2013-5-23,76.8,65.6,57.7,57.5,52.8,48.1,75,64,55,30.17,29.96,20,-52,20,0.00
2013-5-24,77.2,68.6,57.9,65.5,58.6,50.7,78,71,65,30.21,30.06,22,-41,22,0.00
2013-5-25,84.4,75.9,68.7,67.8,64.9,61.0,83,69,59,30.11,29.95,32,-165,32,0.00
2013-5-26,84.4,73.4,66.7,70.8,65.4,60.5,87,77,66,30.02,29.86,29,-119,29,0.00
2013-5-27,83.5,75.2,70.9,70.0,67.2,65.5,87,77,68,29.86,29.62,37,-122,37,0.02
2013-5-28,84.0,76.2,71.2,72.9,67.5,62.2,87,75,63,29.77,29.62,35,-56,35,0.02
2013-5-29,84.6,72.8,63.1,68.0,64.5,57.2,86,76,65,29.75,29.57,34,-74,34,0.20
2013-5-30,80.4,68.8,58.8,65.9,59.8,52.5,87,74,54,29.80,29.56,36,-127,36,3.49
2013-5-31,83.1,75.3,68.9,69.6,64.9,58.1,87,71,51,29.78,29.63,17,-135,17,0.04
2013-6-1,74.5,69.4,60.6,61.6,54.5,49.2,74,60,50,30.08,29.75,19,-75,19,0.02
2013-6-2,75.0,65.8,54.3,52.7,49.4,45.3,72,57,39,30.16,30.01,19,-13,19,0.00
2013-6-3,79.9,68.5,55.4,61.4,54.8,47.6,76,63,46,30.03,29.77,30,-30,30,0.00
2013-6-4,88.9,76.1,67.8,68.8,63.9,58.8,82,66,55,29.95,29.73,46,-41,46,0.00
2013-6-5,74.5,70.5,64.9,64.4,61.5,54.8,86,73,64,30.04,29.83,22,-37,22,0.26
2013-6-6,82.9,69.3,59.4,58.8,54.6,50.8,77,61,44,30.04,29.96,22,-53,22,0.02
2013-6-7,84.0,71.3,58.5,62.9,55.9,50.5,76,60,45,30.04,29.91,7,-101,7,0.00
2013-6-8,82.8,74.8,66.0,63.8,59.6,57.8,77,61,47,29.92,29.71,28,-309,28,0.37
2013-6-9,89.6,76.6,62.1,65.5,60.7,55.8,86,61,40,29.93,29.83,13,-288,13,0.37
2013-6-10,95.7,82.4,67.1,71.9,65.1,57.7,77,58,42,29.90,29.77,22,-228,22,0.00
2013-6-11,96.7,85.1,72.5,68.2,63.3,59.1,67,50,33,29.90,29.77,35,-160,35,0.00
2013-6-12,104.5,88.0,74.1,75.3,69.5,64.2,77,57,39,29.97,29.80,29,-138,29,0.00
2013-6-13,84.0,78.9,73.8,64.6,61.4,57.3,58,55,52,30.04,29.97,17,-195,17,0.00
2013-6-15,89.4,83.2,75.7,69.3,66.9,62.5,77,59,48,29.94,29.86,27,-253,27,0.00
2013-6-16,92.8,81.3,-2.7,70.5,65.9,0.0,86,61,45,30.00,29.86,20,-221,20,0.00
2013-6-17,86.9,76.1,67.3,68.6,65.1,60.9,87,70,57,30.05,29.80,20,-157,20,0.69
2013-6-18,91.4,80.0,67.6,70.6,63.8,58.4,86,60,40,30.06,29.95,13,-95,13,0.00
2013-6-19,85.6,77.2,68.5,68.3,64.6,58.9,84,66,52,30.04,29.91,26,-107,26,0.16
2013-6-20,97.3,81.9,72.1,73.3,69.1,65.2,83,67,50,29.97,29.84,34,-73,34,0.00
2013-6-22,93.4,86.6,79.9,71.6,65.9,62.5,66,51,44,29.87,29.82,38,-380,38,0.00
2013-6-23,97.3,83.5,75.9,70.0,66.9,63.1,74,59,40,29.91,29.80,29,-220,29,0.00
2013-6-24,91.9,83.3,75.4,70.2,67.3,64.9,76,60,47,29.96,29.79,30,-195,31,0.06
2013-6-25,94.5,84.6,76.1,72.9,69.5,65.2,76,62,49,29.94,29.69,35,-115,35,0.10
2013-6-26,104.7,89.1,76.1,75.3,71.2,67.0,75,58,37,29.93,29.79,14,-98,14,0.00
2013-6-27,100.6,86.6,76.8,78.6,72.2,63.3,80,64,46,30.04,29.80,37,-68,37,0.73
2013-6-28,96.1,83.9,71.4,73.2,67.2,61.1,83,60,39,30.07,29.92,18,-42,18,0.39
2013-6-29,91.6,81.3,69.4,65.1,59.3,52.8,68,49,37,30.04,29.88,26,-97,26,0.00
2013-6-30,85.1,75.7,64.2,61.9,55.9,52.7,76,52,38,30.08,29.97,26,-107,26,0.00
2013-7-1,84.7,74.2,61.7,58.3,53.6,49.9,72,51,36,30.17,30.07,23,-108,23,0.00
2013-7-2,86.7,75.4,61.7,61.5,53.4,46.9,67,48,30,30.16,30.06,19,-73,19,0.00
2013-7-3,85.8,74.7,65.1,58.7,53.4,48.0,64,49,35,30.14,29.97,14,-69,14,0.00
2013-7-4,87.4,76.5,64.9,61.5,56.0,51.1,63,50,37,30.04,29.91,18,-36,18,0.00
2013-7-5,89.8,79.8,68.7,62.4,59.8,57.2,69,52,37,30.02,29.84,30,-49,30,0.00
2013-7-6,81.1,76.0,71.4,68.5,63.6,60.2,76,66,54,29.95,29.85,25,-42,25,0.04
2013-7-7,101.3,85.4,74.8,69.0,65.2,60.2,72,53,34,29.99,29.89,29,-88,29,0.06
2013-7-8,92.3,80.7,76.8,67.9,64.8,61.0,66,59,45,30.04,29.96,21,-87,21,0.00
2013-7-9,103.8,92.0,77.9,74.1,69.3,63.4,74,50,34,30.03,29.86,22,-28,22,0.00
2013-7-10,100.2,88.6,75.0,73.1,68.8,62.1,71,54,38,30.03,29.92,15,-62,15,0.02
2013-7-11,90.0,82.6,74.1,72.1,66.6,63.1,71,59,51,30.10,29.92,22,-38,22,0.29
2013-7-12,90.3,86.0,78.1,71.8,68.0,63.0,62,55,50,29.98,29.94,15,-177,15,0.29
2013-7-13,97.3,87.4,76.8,75.8,69.6,64.5,76,57,44,30.04,29.88,19,-207,19,0.00
2013-7-14,86.2,76.0,70.7,71.8,66.7,64.1,87,74,54,30.13,29.92,37,-119,37,0.53
2013-7-15,80.6,72.6,66.4,69.8,63.4,59.5,83,73,65,30.19,30.07,25,-125,25,0.12
2013-7-16,93.4,78.9,67.3,72.0,65.4,60.6,85,65,49,30.29,30.18,19,-75,19,0.02
2013-7-17,95.2,81.9,71.2,76.4,68.2,61.5,84,65,50,30.32,30.19,12,-87,12,0.00
2013-7-18,92.1,83.5,72.5,73.4,68.2,65.0,79,61,46,30.22,30.01,24,-44,24,0.00
2013-7-19,97.9,86.5,73.8,73.2,67.6,64.0,73,55,40,30.05,29.88,16,-45,16,0.00
2013-7-20,97.7,83.6,72.5,73.7,67.7,63.8,84,61,39,29.94,29.82,22,-22,22,1.41
2013-7-21,88.7,78.7,69.6,73.9,69.2,64.5,86,74,59,29.92,29.80,20,-35,20,0.12
2013-7-22,84.7,78.4,73.9,72.9,69.0,64.0,85,73,61,29.93,29.78,21,-19,21,0.12
2013-7-23,92.7,83.4,71.8,74.4,69.0,63.1,79,63,52,29.97,29.78,30,-14,31,1.67
2013-7-24,90.0,80.1,70.0,72.3,66.9,62.1,87,66,46,30.06,29.88,15,-25,15,1.69
2013-7-25,91.9,78.7,71.4,72.5,67.4,61.9,83,69,57,30.08,29.98,20,-34,20,0.00
2013-7-26,85.5,77.2,68.0,70.0,65.8,62.3,86,69,51,30.09,29.98,26,-37,26,2.35
2013-7-27,81.5,73.1,64.0,63.2,58.5,54.3,77,61,52,30.18,29.97,14,-44,14,0.16
2013-7-28,68.5,63.6,61.7,64.1,58.8,56.0,88,84,73,30.08,29.97,15,-12,15,1.90
2013-7-29,82.4,72.8,62.8,73.8,66.8,58.5,87,82,71,30.01,29.84,22,-20,22,0.14
2013-7-30,81.1,75.1,71.4,71.8,69.0,64.9,88,82,71,30.11,29.95,17,-43,17,0.02
2013-7-31,88.3,79.1,67.8,72.7,68.6,63.1,92,71,56,30.16,30.06,11,-45,11,0.00
2013-8-1,89.6,80.9,69.6,72.0,67.6,63.8,86,65,51,30.14,29.93,16,-33,16,0.00
2013-8-2,80.6,76.8,72.3,68.6,67.0,64.7,80,72,64,29.95,29.86,20,-37,20,0.02
2013-8-3,91.2,83.5,77.5,74.8,72.4,69.7,82,70,64,30.06,29.98,16,-142,16,0.43
2013-8-4,78.4,74.2,71.4,72.7,69.4,67.3,93,85,77,30.12,30.00,14,-77,14,2.57
2013-8-5,95.5,81.9,72.3,77.6,72.8,66.7,92,75,57,30.00,29.81,0,-68,0,0.16
2013-8-6,91.9,83.6,71.8,76.0,72.2,64.2,84,69,55,29.93,29.77,17,-34,17,0.43
2013-8-7,88.7,79.7,73.0,74.3,69.5,66.3,85,72,60,29.94,29.80,12,-13,17,0.49
2013-8-8,77.9,73.5,69.1,69.6,67.0,64.5,86,80,72,29.95,29.84,18,2,18,1.49
2013-8-10,87.4,79.2,75.4,66.9,65.2,64.2,72,63,57,30.13,30.07,4,-201,6,0.00
2013-8-11,86.4,73.9,68.5,71.8,65.5,62.5,87,76,60,30.14,30.09,11,-68,11,0.00
2013-8-18,83.1,54.0,81.3,99.9,79.2,63.7,63,36,54,30.13,30.04,32,-909,32,0.00
2013-8-24,176.7,12.2,81.3,99.9,99.5,63.9,72,3,55,30.11,30.03,15,-992,15,0.00
2013-8-25,176.7,25.8,74.8,99.9,94.0,68.1,83,14,46,30.27,30.09,18,-854,18,0.00
2013-8-29,91.9,86.4,82.2,68.9,66.3,63.1,57,52,44,29.99,29.95,12,-408,12,0.00
2013-8-30,101.5,87.7,74.5,76.1,68.3,64.7,77,55,33,30.00,29.85,13,-379,13,0.00
2013-8-31,99.9,85.6,75.0,75.3,68.0,64.2,75,57,37,29.92,29.77,11,-305,11,0.00
2013-9-1,88.9,82.0,76.5,74.5,66.9,60.4,68,61,54,30.02,29.80,18,-192,18,0.00
2013-9-2,93.6,76.7,64.4,66.3,60.4,55.6,76,58,41,30.11,29.98,11,-102,11,0.00
2013-9-3,91.8,77.8,64.2,67.3,60.8,56.5,77,57,40,30.12,30.01,10,-10,10,0.00
2013-9-4,91.6,79.4,65.7,66.3,60.3,56.3,76,54,34,30.16,30.06,10,-18,10,0.00
2013-9-5,97.7,82.1,71.2,69.5,63.6,59.9,69,55,40,30.18,30.07,12,-5,12,0.00
2013-9-6,98.4,83.8,72.9,70.1,65.4,61.6,70,55,41,30.12,29.97,18,4,18,0.00
2013-9-7,98.8,85.2,73.2,72.2,66.3,63.3,71,55,37,30.01,29.90,17,1,17,0.00
2013-9-8,101.3,86.2,74.5,72.7,64.9,61.7,68,50,36,29.95,29.85,19,4,19,0.00
2013-9-9,98.8,83.8,72.7,70.5,62.1,56.8,64,49,33,29.96,29.88,29,2,29,0.00
2013-9-10,94.6,82.7,72.5,69.8,62.0,56.6,67,50,38,30.09,29.95,26,5,26,0.00
2013-9-11,95.4,83.6,72.3,70.8,63.4,58.5,64,51,39,30.14,30.02,15,3,15,0.00
2013-9-12,81.7,75.7,72.3,69.5,66.7,63.9,83,74,56,30.22,30.09,14,2,14,0.02
2013-9-13,77.7,71.6,66.6,66.9,54.3,50.4,78,55,45,30.17,30.03,14,-4,14,0.02
2013-9-14,87.4,73.7,64.0,63.8,56.9,46.5,66,56,50,30.06,29.91,17,0,17,0.00
2013-9-15,95.5,78.0,67.6,71.4,63.7,58.1,78,63,41,30.11,29.93,24,5,24,0.04
2013-9-16,74.5,68.5,66.0,68.1,63.2,60.4,87,83,77,30.19,30.09,18,2,18,0.10
2013-9-17,82.2,74.1,66.6,69.3,65.9,62.5,89,76,61,30.15,29.92,24,5,24,0.26
2013-9-18,91.8,82.0,69.6,71.2,65.9,61.9,83,60,44,29.96,29.80,27,9,27,0.00
2013-9-19,93.0,77.2,68.7,70.8,65.2,62.0,80,68,47,30.01,29.78,24,5,24,1.12
2013-9-20,79.9,67.7,61.3,62.8,53.9,51.7,80,62,41,30.11,29.99,18,3,18,0.41
2013-9-21,87.4,71.6,55.8,60.3,54.9,48.8,81,58,43,30.05,29.91,13,1,13,0.00
2013-9-22,78.1,68.1,58.8,56.7,52.0,46.7,75,58,41,29.97,29.82,21,2,21,0.00
2013-9-23,78.6,69.9,58.5,55.8,52.4,48.0,71,55,44,29.86,29.72,29,2,29,0.00
2013-9-24,79.7,70.2,61.0,58.7,53.8,49.4,67,57,48,29.93,29.80,9,0,9,0.00
2013-9-25,86.2,70.1,56.5,62.0,55.5,48.9,80,61,45,29.95,29.76,0,-3,0,0.00
2013-9-26,89.8,81.8,67.8,63.4,60.5,55.9,66,49,38,29.83,29.74,0,-4,0,0.00
2013-9-27,86.4,77.5,67.3,66.1,60.4,56.3,69,56,46,29.90,29.78,0,0,0,0.00
2013-9-28,76.6,67.6,57.4,66.4,54.0,48.1,81,63,45,30.09,29.77,0,0,0,0.75
2013-9-29,80.1,71.0,61.3,52.8,49.2,46.0,63,47,38,30.11,29.93,0,0,0,0.00
2013-9-30,80.4,69.1,54.7,57.7,52.3,46.2,75,56,43,29.95,29.80,0,-7,0,0.00
2013-10-1,83.8,73.3,60.1,65.6,58.4,47.6,71,60,51,29.94,29.84,0,-7,0,0.00
2013-10-2,83.1,74.2,66.9,69.7,65.3,60.3,89,74,65,29.98,29.83,0,-26,0,0.00
2013-10-3,90.1,77.3,70.5,69.7,66.4,64.6,87,70,56,29.85,29.68,0,-16,0,0.00
2013-10-4,87.1,74.7,58.1,69.8,61.2,38.5,78,64,48,30.02,29.71,0,-2,0,0.08
2013-10-5,67.3,56.1,49.3,40.5,37.1,32.7,57,49,37,30.13,29.99,0,0,0,0.06
2013-10-6,67.8,57.6,47.5,44.2,36.5,31.9,56,46,32,30.08,29.99,0,0,0,0.00
2013-10-7,73.9,61.2,46.2,48.1,40.6,33.9,64,48,34,30.20,30.06,0,-5,0,0.00
2013-10-8,75.4,64.1,50.7,49.6,45.6,39.0,68,52,37,30.09,29.95,0,0,0,0.00
2013-10-9,61.3,59.9,57.6,47.9,47.4,46.6,68,63,61,29.99,29.97,0,0,0,0.00
2013-10-12,177.6,16.1,70.2,99.9,87.4,42.7,42,10,35,30.21,30.12,0,-749,0,0.00
2013-10-13,177.6,2.3,66.0,99.9,98.2,47.9,53,2,52,30.33,30.18,0,-949,0,0.00
2013-10-14,177.6,0.0,177.6,99.9,99.9,99.9,0,0,100,30.19,29.83,0,-999,0,0.00
2013-10-15,177.7,0.0,177.6,99.9,99.9,99.9,0,0,100,30.16,29.92,0,-999,0,0.00
2013-10-16,177.7,0.0,177.7,99.9,99.9,99.9,0,0,100,30.18,30.04,0,-999,0,0.00
2013-10-17,177.7,0.0,177.7,99.9,99.9,99.9,0,0,100,30.08,29.95,0,-999,0,0.00
2013-10-18,177.7,0.0,177.7,99.9,99.9,99.9,0,0,100,30.17,30.06,0,-999,0,0.00
2013-10-19,177.7,22.6,58.8,99.9,79.9,40.8,52,18,47,30.14,29.93,0,-621,0,0.00
2013-10-20,177.6,45.1,57.9,99.9,64.3,43.4,63,38,46,29.98,29.81,0,-256,0,0.00
2013-10-21,176.7,21.3,46.6,99.9,77.9,36.1,68,20,44,30.15,29.97,0,-606,0,0.00
2013-10-22,176.7,35.2,50.2,99.9,71.1,39.6,67,32,38,30.11,29.99,0,-372,0,0.00
2013-10-23,176.5,24.0,43.5,99.9,77.2,36.1,75,23,48,30.17,30.01,0,-575,0,0.00
2013-10-24,176.2,0.0,176.2,99.9,99.9,99.9,0,0,100,30.41,30.13,0,-999,0,0.00
2013-10-25,176.2,0.0,176.2,99.9,99.9,99.9,0,0,100,30.43,30.14,0,-999,0,0.00
2013-10-26,176.2,21.0,46.6,99.9,73.6,29.5,53,17,36,30.20,30.09,0,-608,0,0.00
2013-10-27,67.3,49.0,36.7,43.9,33.0,27.7,72,55,38,30.18,29.93,0,0,0,0.00
2013-10-28,64.2,56.8,48.7,55.6,48.8,32.4,88,75,50,30.07,29.95,0,0,0,0.65
2013-10-29,69.3,62.2,58.6,64.8,57.3,53.4,91,84,76,30.00,29.90,0,0,0,1.73
2013-10-30,71.2,57.9,52.5,66.6,53.0,47.5,92,84,77,29.98,29.74,19,1,19,1.84
2013-10-31,61.9,54.5,47.5,50.7,45.0,39.0,87,71,54,29.77,29.59,20,0,20,0.90
2013-11-1,62.4,53.5,45.0,46.6,39.9,36.0,73,61,48,30.12,29.76,24,2,24,0.02
2013-11-2,61.5,51.3,40.8,40.4,34.9,30.9,68,54,40,30.29,30.11,19,1,19,0.00
2013-11-3,60.6,51.4,43.0,40.2,35.9,30.5,65,56,46,30.13,29.82,42,10,42,0.00
2013-11-4,65.8,57.2,49.1,49.8,44.5,39.9,77,63,50,30.06,29.80,30,5,30,0.00
2013-11-5,60.1,55.1,41.9,58.1,50.6,36.1,90,85,77,30.08,29.85,30,7,30,0.04
2013-11-6,49.8,43.4,38.5,37.9,34.4,31.4,80,71,60,30.34,30.08,26,5,26,0.02
2013-11-7,62.4,49.4,37.0,43.5,36.5,30.5,79,62,46,30.43,30.27,8,0,11,0.02
2013-11-8,64.0,53.3,42.4,39.3,36.0,32.8,70,53,36,30.27,29.87,42,10,42,0.00
2013-11-9,67.1,54.7,43.9,47.9,39.6,34.2,71,57,45,30.27,29.99,17,2,17,0.00
2013-11-10,62.8,53.7,44.2,47.7,41.7,35.0,75,65,49,30.36,30.22,20,3,20,0.00
2013-11-11,58.8,49.3,31.6,50.7,41.3,20.8,81,74,64,30.61,30.16,32,6,32,0.00
2013-11-12,40.1,33.2,23.7,21.2,16.8,12.9,63,51,40,30.84,30.61,25,4,25,0.00
2013-11-13,48.6,37.8,25.2,27.3,19.8,13.1,62,49,42,30.64,30.15,29,8,29,0.00
2013-11-14,40.8,37.5,35.4,27.2,23.2,19.7,62,56,45,30.15,30.04,31,12,31,0.00
2013-11-15,55.0,52.8,40.8,46.2,44.1,27.1,77,72,58,30.04,29.66,25,12,25,0.00
2013-11-16,74.3,63.2,52.7,55.0,51.9,45.9,84,68,47,29.67,29.41,32,6,32,0.00
2013-11-17,70.3,58.9,46.8,47.6,34.6,24.3,56,41,27,30.17,29.42,33,9,33,0.00
2013-11-18,65.8,50.8,36.9,36.9,27.7,24.4,63,42,28,30.29,30.07,17,1,22,0.00
2013-11-19,64.0,51.7,45.1,36.8,30.4,26.4,56,44,35,30.20,29.88,36,11,36,0.00
2013-11-20,59.5,54.4,49.6,47.4,39.2,28.8,68,57,44,29.91,29.79,32,10,32,0.00
2013-11-21,57.0,38.7,26.4,48.7,32.1,18.6,87,77,68,30.48,29.89,31,7,31,0.20
2013-11-22,30.2,26.8,23.7,18.4,16.6,15.0,72,65,56,30.63,30.47,31,9,31,0.12
2013-11-23,35.8,30.8,23.4,19.9,16.0,10.2,58,54,50,30.72,30.58,19,6,22,0.00
2013-11-24,177.1,20.6,20.8,99.9,24.2,8.9,61,50,45,30.68,30.27,17,-71,17,0.00
2013-11-25,177.1,17.6,28.6,99.9,62.0,18.0,67,32,61,30.27,30.17,12,-498,12,0.00
2013-11-26,42.1,39.6,37.8,26.1,22.7,18.2,55,51,45,30.34,30.28,29,12,29,0.00
2013-11-27,176.8,24.2,30.7,99.9,41.5,16.6,56,36,45,30.24,30.15,21,-294,21,0.00
2013-11-28,177.1,23.1,30.2,99.9,62.3,20.5,68,28,46,30.41,30.14,15,-450,15,0.00
2013-11-29,177.1,20.9,30.6,99.9,69.3,21.4,70,25,46,30.45,30.15,26,-522,26,0.00
2013-11-30,177.1,24.0,36.9,99.9,71.6,28.5,73,25,48,30.16,30.07,6,-534,6,0.00
2013-12-7,25.9,21.9,20.5,5.4,4.5,3.1,55,47,42,30.39,30.24,18,-103,18,0.00
2013-12-8,29.8,22.1,19.0,18.9,14.1,5.4,82,72,51,30.24,29.93,19,-26,19,0.00
2013-12-9,24.1,17.2,13.8,12.4,6.2,2.8,71,62,54,30.38,30.19,23,-4,23,0.00
2013-12-10,41.2,27.1,13.6,19.9,11.7,1.5,61,53,38,30.33,30.11,22,4,22,0.00
2013-12-11,36.0,27.6,21.6,19.8,12.7,5.3,72,54,39,30.60,30.19,26,1,26,0.00
2013-12-12,45.0,32.8,19.6,24.2,16.9,3.9,67,52,42,30.55,30.10,24,8,24,0.00
2013-12-13,50.4,39.8,31.6,36.5,31.4,21.9,76,72,67,30.10,29.75,27,8,27,0.00
2013-12-14,38.5,30.1,25.2,30.2,21.2,16.7,74,69,55,30.22,29.92,32,11,32,0.00
2013-12-15,58.8,51.9,37.2,32.3,28.1,22.5,55,40,35,30.18,30.03,15,3,15,0.00
2013-12-16,61.5,47.8,34.7,35.8,26.8,19.5,58,45,34,30.14,30.03,13,1,13,0.00
2013-12-17,55.4,43.3,30.9,35.7,25.1,19.8,67,50,37,30.33,30.13,22,2,22,0.00
2013-12-18,64.2,49.0,33.3,39.2,31.1,20.9,66,51,36,30.21,29.78,30,8,30,0.00
2013-12-19,58.8,52.1,38.1,47.0,42.4,27.3,79,70,59,29.78,29.60,24,8,24,0.00
2013-12-20,37.6,24.1,18.9,26.9,15.0,10.9,75,68,63,30.00,29.74,34,7,34,0.00
2013-12-21,28.2,25.8,24.6,22.8,18.1,13.4,81,73,63,29.85,29.58,17,3,17,0.00
2013-12-22,30.9,24.7,19.9,23.7,17.3,12.9,78,73,65,30.23,29.81,0,0,0,0.00
2013-12-24,31.6,26.7,18.9,28.0,22.7,14.2,87,85,82,30.31,30.11,0,-6,0,0.00
2013-12-25,47.5,35.6,27.5,99.9,28.4,21.5,84,71,58,30.38,30.25,11,0,11,0.26
2013-12-26,44.2,35.4,27.3,99.9,27.3,19.2,74,67,59,30.35,30.20,20,2,20,0.06
2013-12-27,177.3,38.0,26.2,99.9,31.0,19.0,75,64,47,30.35,30.19,10,0,10,0.02
2013-12-28,53.2,42.4,31.1,99.9,31.6,24.1,77,65,55,30.19,29.86,22,1,22,0.00
2013-12-29,42.3,22.9,17.4,32.9,9.9,3.1,71,57,47,30.32,29.96,38,10,38,0.00
2013-12-30,36.3,25.6,14.7,22.5,10.9,1.4,62,54,45,30.30,30.18,57,3,57,0.00
2013-12-31,51.4,39.1,26.2,30.4,24.3,16.2,72,56,41,30.29,30.03,32,8,32,0.00
2014-1-1,40.1,28.0,14.2,28.5,17.7,5.6,73,65,58,30.35,29.93,29,8,29,0.00
2014-1-2,36.1,23.3,10.8,20.3,12.5,1.5,68,63,50,30.43,30.33,18,2,18,0.00